STARLINK-32350

Last updated on Tue Oct 08 2024 00:02:04 GMT+0000 (Coordinated Universal Time)

1 61063U 24164P 24281.58334491 -.00015381 00000+0 -26892-3 0 9996 2 61063 53.1587 347.1392 0001054 64.1451 163.4780 15.49320318 5052
UTC large
Height (km)
Speed (km/s)
/
Latitude / Longitude
Inclination (degrees)
Orbital Period (minutes)
Azimuth
Elevation
Range (km)
Doppler Factor

Next 0 passes for location: London (51.5072 / 0.1276)

Sorry there are no passes over London.